Probability
0 0 0 0 0 0 0 0 0 0 0 0 0 0 0 0 0 0 0 0 0 0 0 0 0 0 0 0 0 0 0 0 0 0 0 0 0 0 0 0 0 0 0
0 0 0 0 0 0 0 0 0 0 0 0 0 0 0 0 0 0 0 0 0 0 0 0 0 0 0 0 0 0 0 0 0 0 0 0 0 0 0 0 0 0 0
0 0 0 0 0 0 0 0 0 0 0 0 0 0 0 0 0 0 0 0 0 0 0 0 0 0 0 0 0 0 0 0 0 0 0 0 0 0 0 0 0 0 0
0 0 0 0 0 0 0 0 0 0 0 0 0 0 0 0 0 0 0 0 0 0 0 0 0 0 0 0 0 0 0 0 0 0 0 0 0 0 0 0 0 0 0
0 0 0 0 0 0 0 0 0 0 0 0 0 0 0 0 0 0 0 0 0 0 0 0 0 0 0 0 0 0 0 0 0 0 0 0 0 0 0 0 0 0 0
0 0 0 0 0 0 0 0 0 0 0 0 0 0 0 0 0 0 0 0 0 0 0 0 0 0 0 0 0 0 0 0 0 0 0 0 0 0 0 0 0 0 0
0 0 0 0 0 0 0 0 0 0 0 0 0 0 0 0 0 0 0 0 0 0 0 0 0 0 0 0 0 0 0 0 0 0 0 0 0 0 0 0 0 0 0
1 1 1 0 0 0 1 1 0 0 0 0 0 0 0 0 0 0 0 0 0 0 0 0 0 0 0 0 0 0 0 0 0 0 0 0 0 0 0 0 0 0 0
4 3 2 1 0 1 2 1 0 0 0 0 0 0 0 0 0 0 0 0 0 0 0 0 0 0 0 0 0 0 0 0 0 0 0 0 0 0 0 0 0 0 0
6 5 3 1 1 2 2 1 0 0 0 0 0 0 0 0 0 0 0 0 0 0 0 0 0 0 0 0 0 0 0 0 0 0 0 0 0 0 0 0 0 0 0
5 4 2 2 2 2 2 1 0 0 0 0 0 0 0 0 0 0 0 0 0 0 0 0 0 0 0 0 0 0 0 0 0 0 0 0 0 0 0 0 0 0 0
3 2 1 1 1 2 2 1 0 0 0 0 0 0 0 0 0 0 0 0 0 0 0 0 0 0 0 0 0 0 0 0 0 0 0 0 0 0 0 0 0 0 0
4 2 1 1 1 1 1 1 0 0 0 0 0 0 0 0 0 0 0 0 0 0 0 0 0 0 0 0 0 0 0 0 0 0 0 0 0 0 0 0 0 0 0
4 3 2 2 2 2 1 0 1 1 1 1 1 1 1 1 0 0 0 0 0 0 0 0 0 0 0 0 0 0 0 0 0 0 0 0 0 0 0 0 0 0 0
2 3 3 3 3 3 1 1 2 2 2 2 2 2 2 1 0 0 0 0 0 0 0 0 0 0 0 0 0 0 0 0 0 0 0 0 0 0 0 0 0 0 0
1 2 3 3 3 3 2 2 2 2 1 1 1 1 1 1 0 0 0 0 0 0 0 0 0 0 0 0 0 0 0 0 0 0 0 0 0 0 0 0 0 0 0
1 2 3 3 3 2 2 2 2 1 0 0 0 0 0 0 0 0 0 0 0 0 0 0 0 0 0 0 0 0 0 0 0 0 0 0 0 0 0 0 0 0 0
1 2 2 2 2 1 0 1 1 0 0 0 0 0 0 0 0 0 0 0 0 0 0 0 0 0 0 0 0 0 0 0 0 0 0 0 0 0 0 0 0 0 0
0 1 1 1 1 0 0 0 0 0 0 0 0 0 0 0 0 0 0 0 0 0 0 0 0 0 0 0 0 0 0 0 0 0 0 0 0 0 0 0 0 0 0
0 0 0 0 0 0 0 0 0 0 0 0 0 0 0 0 0 0 0 0 0 0 0 0 0 0 0 0 0 0 0 0 0 0 0 0 0 0 0 0 0 0 0
0 0 0 0 0 0 0 0 0 0 0 0 0 0 0 0 0 0 0 0 0 0 0 0 0 0 0 0 0 0 0 0 0 0 0 0 0 0 0 0 0 0 0
0 0 0 0 0 0 0 0 0 0 0 0 0 0 0 0 0 0 0 0 0 0 0 0 0 0 0 0 0 0 0 0 0 0 0 0 0 0 0 0 0 0 0
0 0 0 0 0 0 0 0 0 0 0 0 0 0 0 0 0 0 0 0 0 0 0 0 0 0 0 0 0 0 0 0 0 0 0 0 0 0 0 0 0 0 0
0 0 0 0 0 0 0 0 0 0 0 0 0 0 0 0 0 0 0 0 0 0 0 0 0 0 0 0 0 0 0 0 0 0 0 0 0 0 0 0 0 0 0
0 0 0 0 0 0 0 0 0 0 0 0 0 0 0 0 0 0 0 0 0 0 0 0 0 0 0 0 0 0 0 0 0 0 0 0 0 0 0 0 0 0 0
0 0 0 0 0 0 0 0 0 0 0 0 0 0 0 0 0 0 0 0 0 0 0 0 0 0 0 0 0 0 0 0 0 0 0 0 0 0 0 0 0 0 0
Wind_Speed
5 4 3 3 3 2 3 3 2 2 2 1 1 2 2 2 2 2 2 5 6 7 7 7 6 6 5 5 4 4 4 4 4 4 4 4 3 3 3 2 2 2 2
5 5 4 3 3 3 3 3 3 2 1 1 1 2 2 3 3 3 3 4 6 7 8 8 8 7 7 6 6 5 5 5 6 6 6 6 6 6 6 5 5 4 4
6 5 5 4 4 3 3 2 2 1 1 1 2 2 2 3 3 4 3 3 3 6 8 10 9 8 8 8 8 7 6 6 7 8 8 8 9 9 9 8 8 7 6
7 6 5 4 4 3 3 3 2 2 1 1 2 2 2 2 3 4 3 3 3 3 5 8 9 9 9 9 9 8 7 6 7 8 9 9 10 10 11 11 10 10 9
7 6 5 4 4 4 3 3 2 2 2 2 2 2 2 3 3 3 3 4 3 3 3 5 7 7 8 9 9 8 8 7 7 7 8 9 9 9 10 11 11 11 10
8 6 5 5 5 4 3 3 3 2 2 2 1 2 2 3 2 3 4 3 2 3 3 3 2 3 5 7 8 8 8 7 7 7 7 7 8 8 9 10 11 12 12
8 7 5 5 5 5 5 5 3 3 2 2 1 2 2 2 2 2 2 2 2 2 2 2 1 1 2 4 5 7 8 8 7 7 7 7 7 8 9 10 10 10 11
8 7 7 6 6 5 5 5 4 3 2 2 2 1 2 3 2 1 1 1 1 0 0 1 1 1 1 1 2 4 5 7 7 8 8 8 8 8 9 9 10 9 9
7 7 7 5 5 5 5 5 5 5 3 2 2 3 2 3 3 2 1 1 1 0 1 0 0 0 0 0 1 3 4 5 7 8 8 8 8 8 9 9 10 9 8
6 6 6 6 6 5 5 5 5 4 4 3 2 2 3 3 2 3 2 0 0 0 1 1 1 1 1 0 1 2 3 4 6 6 7 7 7 8 9 10 10 9 8
5 6 7 7 6 5 5 5 5 5 4 4 3 2 2 2 3 3 4 2 1 1 1 1 1 1 1 1 1 1 2 3 5 5 6 7 7 8 9 9 9 9 7
4 6 6 6 6 5 5 5 5 5 5 4 3 3 3 3 3 3 4 3 3 2 1 1 1 1 1 1 1 2 2 3 4 5 5 6 7 7 8 9 9 8 7
4 6 5 5 4 4 4 4 4 4 4 4 4 3 3 3 2 3 3 3 3 2 1 1 1 1 0 0 1 2 2 3 3 4 5 5 6 7 7 7 8 9 8
5 5 5 5 4 5 4 4 4 3 3 4 4 3 3 3 2 2 2 2 3 3 2 3 1 1 0 0 1 2 2 3 3 4 4 5 6 6 6 6 7 7 7
3 5 5 5 4 4 4 4 3 3 3 3 3 3 2 1 1 1 1 2 3 3 3 2 1 0 0 1 1 1 1 2 3 3 4 4 4 5 5 6 6 6 6
4 5 5 4 4 4 4 3 3 2 3 2 2 2 2 1 1 1 1 1 2 3 3 1 1 0 0 0 1 1 1 2 3 3 3 3 3 4 5 5 5 6 6
4 5 5 5 4 4 3 3 3 3 3 2 2 2 2 1 1 0 0 1 1 2 3 1 0 1 0 0 1 1 1 2 2 3 3 3 3 4 4 4 5 5 5
4 5 5 5 4 4 4 4 4 4 4 4 3 2 2 1 1 1 1 1 1 1 2 2 1 0 0 0 0 1 1 1 1 3 3 3 4 3 3 3 3 3 4
4 4 5 5 5 4 4 4 4 3 3 3 3 3 2 2 1 1 1 1 1 1 1 1 1 0 0 0 0 1 1 1 2 2 3 4 4 4 3 2 2 3 3
5 5 5 5 5 4 4 4 4 3 3 2 2 2 3 3 2 2 1 1 1 1 1 1 1 0 0 0 0 0 1 1 1 2 2 3 4 4 4 3 3 3 2
4 5 5 5 4 4 4 4 4 4 3 3 2 2 2 2 3 2 2 2 1 1 1 1 1 1 1 1 1 1 1 1 1 1 1 1 2 2 2 3 3 2 1
4 4 4 5 4 3 5 6 5 4 3 3 3 2 1 2 2 2 2 2 2 2 2 2 1 2 2 2 1 1 1 0 2 1 0 1 1 1 1 1 3 2 1
4 4 4 4 4 4 6 6 6 4 3 3 3 2 1 2 2 2 2 2 1 0 2 3 3 3 2 2 2 1 2 2 2 1 0 1 1 1 1 2 4 2 1
4 4 4 4 3 4 6 6 6 4 3 3 3 3 3 2 2 3 2 2 1 2 1 1 2 2 2 2 3 2 2 1 0 1 0 1 1 1 2 2 5 1 0
3 3 3 4 4 3 5 6 6 4 3 2 2 3 3 3 5 5 3 2 0 1 1 2 2 1 1 2 3 2 2 1 0 1 0 0 1 2 2 2 3 4 2
4 4 3 3 4 4 6 7 6 3 3 2 2 2 5 5 6 6 4 3 3 2 1 1 2 3 3 2 2 2 2 2 1 1 1 1 0 1 2 2 1 2 2
Wind_Direction
159 159 157 157 156 149 150 150 146 146 143 145 168 183 210 224 230 232 249 254 250 244 240 239 235 232 228 231 231 232 236 243 245 248 253 256 260 265 273 282 290 279 290
165 166 167 170 172 168 163 162 163 161 169 175 216 217 224 231 235 236 238 256 256 253 251 249 249 247 241 242 244 242 241 245 248 251 254 255 253 253 255 257 262 266 262
171 170 172 180 184 173 166 157 159 154 182 203 235 239 234 235 239 242 241 241 255 258 254 253 254 252 252 253 255 255 247 247 251 254 255 255 255 252 250 251 253 256 256
176 173 178 188 179 168 167 168 166 174 203 215 239 250 244 245 247 245 242 241 239 247 254 254 255 260 262 263 264 264 265 258 253 256 259 258 259 257 251 250 250 249 251
180 179 185 186 172 169 174 175 170 173 197 219 235 248 247 242 247 248 247 243 236 236 239 255 257 258 262 265 268 272 276 273 265 260 261 259 261 264 260 255 252 251 250
184 181 184 181 171 171 179 179 179 179 189 201 230 260 261 254 249 245 248 245 239 238 234 239 253 261 258 260 265 271 277 280 276 273 269 267 265 268 269 268 262 257 254
185 184 188 180 179 186 189 182 171 178 191 159 142 303 295 264 253 254 249 242 244 239 224 229 236 245 273 271 272 273 279 282 282 282 285 283 278 275 277 277 274 266 262
185 187 186 187 185 185 184 183 174 165 175 164 156 144 317 326 323 294 293 248 258 245 225 247 242 234 251 277 301 296 291 286 287 292 295 297 298 293 285 281 277 274 266
185 183 183 183 184 187 191 190 183 176 182 189 177 164 185 250 300 309 329 354 358 7 327 330 310 293 270 261 306 316 312 301 296 299 304 306 306 308 308 301 291 284 280
187 185 181 182 184 188 187 185 183 182 173 188 199 208 205 184 216 293 301 310 17 323 316 335 343 328 327 302 308 323 326 318 307 306 305 308 316 319 318 317 316 305 297
186 188 187 185 184 186 189 183 182 186 188 189 184 179 203 214 211 231 271 280 285 238 227 251 269 289 321 314 293 325 335 318 306 307 313 322 327 331 335 335 331 331 319
190 195 189 188 185 182 185 187 187 189 194 193 189 183 182 191 200 212 242 254 262 251 218 213 234 266 284 300 328 352 347 337 325 322 326 341 347 349 350 346 348 345 341
198 199 188 186 185 183 180 177 184 193 196 195 199 204 209 219 200 200 231 253 254 255 234 224 212 224 221 16 341 0 353 355 343 339 345 352 358 360 355 349 354 357 355
198 188 180 177 177 173 173 177 184 193 191 201 206 203 209 219 209 203 211 234 262 258 238 238 180 173 137 86 16 34 6 12 12 1 360 5 9 8 1 355 358 1 5
175 168 167 168 167 165 169 173 180 186 187 198 197 194 199 207 202 204 213 213 230 262 259 220 204 136 123 93 53 41 9 0 12 12 13 15 13 12 9 10 18 22 21
155 147 149 150 150 148 148 150 149 148 150 156 158 161 174 184 161 166 211 228 227 241 256 205 196 133 80 93 89 62 10 19 15 9 12 17 25 29 23 26 31 29 25
144 144 146 145 141 136 134 135 136 138 140 134 129 146 157 146 142 163 199 218 236 238 254 246 110 77 94 73 33 32 28 15 2 6 11 31 32 25 20 25 31 30 27
139 137 137 134 131 130 134 141 142 141 145 149 148 146 155 138 151 166 174 214 231 230 235 247 203 167 185 168 7 353 5 8 354 2 18 22 19 10 14 24 29 30 30
133 130 135 138 136 137 135 133 136 141 148 153 155 159 164 157 174 183 168 202 232 242 227 218 224 121 29 39 23 353 359 355 346 3 14 10 4 3 8 16 26 30 26
140 138 134 133 134 134 132 131 131 130 131 133 143 153 163 173 181 180 184 201 202 213 214 197 194 189 213 348 123 266 308 338 327 352 355 355 0 7 16 23 24 18 24
136 134 129 125 127 132 140 141 138 140 141 136 131 141 156 165 179 180 182 190 180 192 192 192 203 190 217 209 221 208 240 319 296 336 329 340 348 348 360 0 358 353 9
135 133 138 139 139 141 152 154 148 148 150 150 152 148 148 149 157 155 158 161 168 178 191 189 205 220 230 218 188 188 163 91 283 305 344 304 357 314 317 310 312 309 284
146 144 146 143 143 153 162 163 160 148 153 160 164 163 157 149 122 104 94 69 57 81 196 184 200 217 215 201 175 191 201 201 230 277 31 283 331 288 302 316 317 284 214
153 153 154 153 152 169 171 167 161 142 146 161 170 172 169 164 166 153 130 97 56 19 18 146 187 209 215 202 188 187 183 156 322 322 139 254 309 293 317 322 323 336 261
157 157 159 161 162 175 179 172 158 141 152 171 177 178 177 185 202 179 153 153 154 337 27 97 120 141 171 164 146 121 128 115 275 262 113 202 308 316 314 314 330 345 335
165 158 161 168 170 181 188 184 171 151 164 180 185 196 205 206 212 196 171 175 203 224 185 59 44 38 37 45 100 130 156 153 182 258 218 148 2 1 324 317 327 335 341